User: anonymous   Login
Location: Unspecified
(0.0000°N, 0.0000°E)
Time: 12:37:13
(UTC+00:00)
Language:

FIREBIRD 4 - Orbit

View from above orbital plane
View from above orbital plane
View from above satellite
View from above satellite

Ground track
Ground track

The orbit data is extracted from the following two-line orbital elements,

1 40378U 15003C   18115.14939711  .00002558  00000-0  10747-3 0  9994
2 40378  99.0930   6.4291 0132905  47.2884 313.9444 15.17030268178286
Epoch (UTC): 25 April 2018 03:35:07
Eccentricity: 0.0132905
inclination: 99.0930°
perigee height: 423 km
apogee height: 606 km
right ascension of ascending node: 6.4291°
argument of perigee: 47.2884°
revolutions per day: 15.17030268
mean anomaly at epoch: 313.9444°
orbit number at epoch: 17828

The dashed part of the orbit path shows where the satellite is in the earth's shadow,  

DLR